�_�ʐ�͌���@�Y���u�C�̈ړ��ʁi�������j,,,,,,,,,,,,
�@,Time,Time int.,,Lat.,,Long.,,Distance,,Direction,Speed,
Date(yyyy/mm/dd),(hh:mm),(hour),(min),(deg),(min),(deg),(min),(miles),(meter),(deg),(m/s),(knots)
2005/11/16,9:30,0,,36,46.014,137,13.146,,,,,
2005/11/16,9:35,0,5,36,46.038,137,13.152,0.02,45.28,11.34,0.15,0.29
2005/11/16,9:40,0,5,36,46.074,137,13.164,0.04,68.94,14.98,0.23,0.45
2005/11/16,9:45,0,5,36,46.098,137,13.158,0.02,45.28,348.6,0.15,0.29
2005/11/16,9:50,0,5,36,46.122,137,13.17,0.03,47.85,21.88,0.16,0.31
2005/11/16,9:55,0,5,36,46.146,137,13.152,0.03,51.84,328.86,0.17,0.34
2005/11/16,10:00,0,5,36,46.17,137,13.158,0.02,45.28,11.34,0.15,0.29
2005/11/16,10:05,0,5,36,46.2,137,13.17,0.03,58.29,17.81,0.19,0.38
2005/11/16,10:10,0,5,36,46.236,137,13.176,0.04,67.18,7.61,0.22,0.44
2005/11/16,10:15,0,5,36,46.248,137,13.188,0.02,28.49,38.78,0.09,0.18
2005/11/16,10:20,0,5,36,46.272,137,13.2,0.03,47.85,21.88,0.16,0.31
2005/11/16,10:25,0,5,36,46.29,137,13.212,0.02,37.78,28.17,0.13,0.24
2005/11/16,10:30,0,5,36,46.32,137,13.224,0.03,58.29,17.81,0.19,0.38
2005/11/16,10:35,0,5,36,46.338,137,13.236,0.02,37.78,28.17,0.13,0.24
2005/11/16,10:40,0,5,36,46.368,137,13.254,0.03,61.61,25.73,0.21,0.4
2005/11/16,10:45,0,5,36,46.404,137,13.272,0.04,71.77,21.88,0.24,0.47
2005/11/16,10:50,0,5,36,46.416,137,13.278,0.01,23.92,21.88,0.08,0.16
2005/11/16,10:55,0,5,36,46.44,137,13.284,0.02,45.28,11.34,0.15,0.29
2005/11/16,11:00,0,5,36,46.488,137,13.302,0.05,92.73,16.75,0.31,0.6
2005/11/16,11:05,0,5,36,46.494,137,13.302,0.01,11.1,359.97,0.04,0.07
2005/11/16,11:10,0,5,36,46.536,137,13.332,0.05,89.59,29.85,0.3,0.58
2005/11/16,11:15,0,5,36,46.548,137,13.326,0.01,23.92,338.06,0.08,0.16
2005/11/16,11:20,0,5,36,46.584,137,13.344,0.04,71.77,21.88,0.24,0.47
2005/11/16,11:25,0,5,36,46.62,137,13.356,0.04,68.94,14.98,0.23,0.45
2005/11/16,11:30,0,5,36,46.65,137,13.368,0.03,58.29,17.8,0.19,0.38


�A,Time,Time int.,,Lat.,,Long.,,Distance,,Direction,Speed,
Date(yyyy/mm/dd),(hh:mm),(hour),(min),(deg),(min),(deg),(min),(miles),(meter),(deg),(m/s),(knots)
2005/11/16,11:45,0,,36,46.074,137,13.404,,,,,
2005/11/16,11:50,0,5,36,46.128,137,13.416,0.05,101.46,10.1,0.34,0.66
2005/11/16,11:55,0,5,36,46.164,137,13.428,0.04,68.94,14.98,0.23,0.45
2005/11/16,12:00,0,5,36,46.212,137,13.44,0.05,90.56,11.34,0.3,0.59
2005/11/16,12:05,0,5,36,46.242,137,13.452,0.03,58.29,17.8,0.19,0.38
2005/11/16,12:10,0,5,36,46.284,137,13.458,0.04,78.19,6.52,0.26,0.51
2005/11/16,12:15,0,5,36,46.308,137,13.47,0.03,47.85,21.88,0.16,0.31
2005/11/16,12:20,0,5,36,46.35,137,13.476,0.04,78.19,6.52,0.26,0.51
2005/11/16,12:25,0,5,36,46.38,137,13.482,0.03,56.2,9.11,0.19,0.36
2005/11/16,12:30,0,5,36,46.422,137,13.494,0.04,79.71,12.91,0.27,0.52
2005/11/16,12:35,0,5,36,46.446,137,13.494,0.02,44.39,359.97,0.15,0.29
2005/11/16,12:40,0,5,36,46.476,137,13.5,0.03,56.2,9.11,0.19,0.36
2005/11/16,12:45,0,5,36,46.512,137,13.506,0.04,67.18,7.6,0.22,0.44
2005/11/16,12:50,0,5,36,46.524,137,13.512,0.01,23.92,21.88,0.08,0.16
2005/11/16,12:55,0,5,36,46.548,137,13.518,0.02,45.28,11.34,0.15,0.29
2005/11/16,13:00,0,5,36,46.566,137,13.53,0.02,37.78,28.17,0.13,0.24
2005/11/16,13:05,0,5,36,46.59,137,13.536,0.02,45.28,11.34,0.15,0.29
2005/11/16,13:10,0,5,36,46.608,137,13.548,0.02,37.78,28.17,0.13,0.24
2005/11/16,13:15,0,5,36,46.614,137,13.554,0.01,14.24,38.78,0.05,0.09
2005/11/16,13:20,0,5,36,46.638,137,13.566,0.03,47.85,21.88,0.16,0.31
2005/11/16,13:25,0,5,36,46.65,137,13.578,0.02,28.48,38.78,0.09,0.18
2005/11/16,13:30,0,5,36,46.656,137,13.59,0.01,21.02,58.1,0.07,0.14
2005/11/16,13:35,0,5,36,46.668,137,13.59,0.01,22.19,359.96,0.07,0.14
2005/11/16,13:45,0,10,36,46.698,137,13.602,0.03,58.29,17.8,0.1,0.19
2005/11/16,13:50,0,5,36,46.71,137,13.626,0.02,42.04,58.1,0.14,0.27
2005/11/16,13:55,0,5,36,46.722,137,13.632,0.01,23.92,21.87,0.08,0.16
2005/11/16,14:00,0,5,36,46.752,137,13.644,0.03,58.29,17.8,0.19,0.38
2005/11/16,14:05,0,5,36,46.752,137,13.662,0.01,26.78,89.96,0.09,0.17
2005/11/16,14:10,0,5,36,46.77,137,13.68,0.02,42.73,38.78,0.14,0.28
2005/11/16,14:15,0,5,36,46.812,137,13.686,0.04,78.19,6.52,0.26,0.51


�B,Time,Time int.,,Lat.,,Long.,,Distance,,Direction,Speed,
Date(yyyy/mm/dd),(hh:mm),(hour),(min),(deg),(min),(deg),(min),(miles),(meter),(deg),(m/s),(knots)
2005/11/16,9:35,0,,36,46.002,137,13.542,,,,,
2005/11/16,9:40,0,5,36,46.05,137,13.56,0.05,92.73,16.75,0.31,0.6
2005/11/16,9:45,0,5,36,46.08,137,13.578,0.03,61.61,25.73,0.21,0.4
2005/11/16,9:50,0,5,36,46.116,137,13.602,0.04,75.56,28.17,0.25,0.49
2005/11/16,9:55,0,5,36,46.14,137,13.632,0.03,62.95,45.13,0.21,0.41
2005/11/16,10:05,0,5,36,46.182,137,13.692,0.06,118.34,48.94,0.39,0.77
2005/11/16,10:10,0,5,36,46.188,137,13.722,0.02,46,76,0.15,0.3
2005/11/16,10:15,0,5,36,46.224,137,13.74,0.04,71.77,21.88,0.24,0.47
2005/11/16,10:20,0,5,36,46.236,137,13.776,0.03,57.98,67.46,0.19,0.38
2005/11/16,10:25,0,5,36,46.26,137,13.8,0.03,56.97,38.78,0.19,0.37
2005/11/16,10:30,0,5,36,46.272,137,13.83,0.03,49.85,63.53,0.17,0.32
2005/11/16,10:35,0,5,36,46.29,137,13.842,0.02,37.78,28.17,0.13,0.24
2005/11/16,10:40,0,5,36,46.308,137,13.866,0.03,48.82,46.97,0.16,0.32
2005/11/16,10:45,0,5,36,46.314,137,13.896,0.02,46,76,0.15,0.3
2005/11/16,10:50,0,5,36,46.326,137,13.932,0.03,57.98,67.45,0.19,0.38
2005/11/16,10:55,0,5,36,46.356,137,13.962,0.04,71.21,38.78,0.24,0.46
2005/11/16,11:00,0,5,36,46.356,137,13.992,0.02,44.64,89.96,0.15,0.29
2005/11/16,11:05,0,5,36,46.374,137,14.028,0.03,63.07,58.1,0.21,0.41
2005/11/16,11:10,0,5,36,46.38,137,14.058,0.02,46,76,0.15,0.3
2005/11/16,11:15,0,5,36,46.398,137,14.082,0.03,48.82,46.97,0.16,0.32
2005/11/16,11:20,0,5,36,46.41,137,14.118,0.03,57.98,67.45,0.19,0.38
2005/11/16,11:25,0,5,36,46.416,137,14.136,0.02,28.99,67.45,0.1,0.19


�C,Time,Time int.,,Lat.,,Long.,,Distance,,Direction,Speed,
Date(yyyy/mm/dd),(hh:mm),(hour),(min),(deg),(min),(deg),(min),(miles),(meter),(deg),(m/s),(knots)
2005/11/16,11:45,0,,36,46.044,137,13.452,,,,,
2005/11/16,11:50,0,5,36,46.11,137,13.494,0.07,137.14,27.08,0.46,0.89
2005/11/16,11:55,0,5,36,46.152,137,13.494,0.04,77.68,359.97,0.26,0.5
2005/11/16,12:00,0,5,36,46.188,137,13.494,0.04,66.58,359.97,0.22,0.43
2005/11/16,12:05,0,5,36,46.248,137,13.524,0.06,119.62,21.88,0.4,0.78
2005/11/16,12:10,0,5,36,46.278,137,13.536,0.03,58.29,17.8,0.19,0.38
2005/11/16,12:15,0,5,36,46.32,137,13.542,0.04,78.19,6.52,0.26,0.51
2005/11/16,12:20,0,5,36,46.356,137,13.578,0.05,85.46,38.78,0.28,0.55
2005/11/16,12:25,0,5,36,46.386,137,13.572,0.03,56.2,350.82,0.19,0.36
2005/11/16,12:30,0,5,36,46.422,137,13.584,0.04,68.94,14.98,0.23,0.45
2005/11/16,12:35,0,5,36,46.464,137,13.602,0.04,82.17,18.99,0.27,0.53
2005/11/16,12:40,0,5,36,46.482,137,13.608,0.02,34.47,14.97,0.11,0.22
2005/11/16,12:50,0,10,36,46.542,137,13.626,0.06,114.16,13.53,0.19,0.37
2005/11/16,12:55,0,5,36,46.566,137,13.644,0.03,51.84,31.07,0.17,0.34
2005/11/16,13:00,0,5,36,46.584,137,13.656,0.02,37.78,28.17,0.13,0.24
2005/11/16,13:05,0,5,36,46.59,137,13.692,0.03,54.7,78.26,0.18,0.35
2005/11/16,13:10,0,5,36,46.608,137,13.698,0.02,34.47,14.97,0.11,0.22
2005/11/16,13:15,0,5,36,46.626,137,13.716,0.02,42.73,38.78,0.14,0.28
2005/11/16,13:25,0,10,36,46.644,137,13.758,0.04,70.8,61.92,0.12,0.23
2005/11/16,13:30,0,5,36,46.686,137,13.776,0.04,82.17,18.98,0.27,0.53
2005/11/16,13:35,0,5,36,46.698,137,13.794,0.02,34.78,50.31,0.12,0.23
2005/11/16,13:40,0,5,36,46.704,137,13.818,0.02,37.39,72.7,0.12,0.24
2005/11/16,13:45,0,5,36,46.716,137,13.83,0.02,28.48,38.78,0.09,0.18
2005/11/16,13:50,0,5,36,46.728,137,13.848,0.02,34.78,50.31,0.12,0.23
2005/11/16,13:55,0,5,36,46.764,137,13.872,0.04,75.55,28.17,0.25,0.49
2005/11/16,14:00,0,5,36,46.782,137,13.884,0.02,37.78,28.16,0.13,0.24
2005/11/16,14:05,0,5,36,46.794,137,13.914,0.03,49.85,63.52,0.17,0.32
2005/11/16,14:10,0,5,36,46.812,137,13.932,0.02,42.73,38.77,0.14,0.28
2005/11/16,14:15,0,5,36,46.842,137,13.95,0.03,61.61,25.72,0.21,0.4
2005/11/16,14:20,0,5,36,46.854,137,13.956,0.01,23.92,21.87,0.08,0.16
